Location: Chacón
(10.5789°N, 66.9317°W)
Time: 21:38:39
(UTC+00:00)

Cosmos 2218 Rocket - Pass Details

Date: 23 May 2024
Orbit: 954 x 1007 km, 82.9° (Epoch: 22 June)

Event Time Altitude Azimuth Distance (km) Brightness Sun altitude
Exits shadow 08:07:27 22° 167° (SSE) 2,018 5.5 -26.9°
Maximum altitude 08:11:36 63° 92° (E) 1,110 4.4 -26.0°
Drops below altitude 10° 08:17:53 10° 13° (NNE) 2,766 6.9 -24.7°
Sets 08:20:25 0° 10° (N) 3,710 7.6 -24.2°
